User: anonymous   Login
Location: Mentone
(34.5413°N, 85.5351°W)
Time: 15:46:33
(UTC-06:00)
Language:

ATLAS 5 CENTAUR R/B - Orbit

View from above orbital plane
View from above orbital plane
View from above satellite
View from above satellite

Ground track
Ground track

The orbit data is extracted from the following two-line orbital elements,

1 31702U 07027B   16340.24126352 0.00000100  00000-0  35274-4 0    07
2 31702  63.3712  67.8879 0250315   1.8854 358.1146 14.18528518    05
Epoch (UTC): 05 December 2016 05:47:25
Eccentricity: 0.0250315
inclination: 63.3712°
perigee height: 650 km
apogee height: 1011 km
right ascension of ascending node: 67.8879°
argument of perigee: 1.8854°
revolutions per day: 14.18528518
mean anomaly at epoch: 358.1146°
orbit number at epoch: 0

The dashed part of the orbit path shows where the satellite is in the earth's shadow,  

DLR